{"data":{"norad_id":60029,"epoch":"2026-05-25T02:36:57.645792Z","epoch_age_seconds":72421,"freshness":"FRESH","line1":"1 60029U 24111P   26145.10900053  .00000036  00000+0  13352-4 0  9998","line2":"2 60029  53.1600  80.6647 0001256  86.6857 273.4288 15.30197495110739","mean_motion":15.30197495,"eccentricity":0.0001256,"inclination_deg":53.16,"raan_deg":80.6647,"arg_perigee_deg":86.6857,"mean_anomaly_deg":273.4288,"bstar":1.3352e-5,"rev_number":11073,"period_min":94.105499760997,"perigee_km":474.36176694866,"apogee_km":476.08333086734,"semimajor_km":6853.359548908,"source":"CELESTRAK","updated_at":"2026-05-25T13:38:19.133381Z"}}